BB4
导读
BB4是美国于北京时间2023年9月2日8时发射的军用卫星,由太空探索技术公司(SpaceX)使用“猎鹰9”火箭,从加利福尼亚州范登堡空军基地送入轨道,是此次任务搭载的13枚军用卫星之一。该卫星旨在服务美国太空发展局的军事航天布局,将助力提升美军太空态势感知、数据中继等军事空间能力,是美国推进低轨军用卫星星座建设的组成部分。
Basic Information
目录编号:
57757
目录名称:
BB4
国际标识:
2023-133B
轨道中心:
EARTH
卫星名称:
BB4
卫星全名:
--
卫星状态:
在轨 (已飞行1105 天)
发射日期:
2023-09-02 UTC
国别 :
美国
(US)
星等 :
--
This satellite is enrolled in the Space Conjunction Data Service (SCDS) and the current flight risk assessment level is: No High Risk
Orbit Information
| 数据来源 | 国际轨道数据 |
| 星历时间: | 2026-09-08T20:11:53+0800 3天前 查看轨道信息 |
| 半长轴: | 7004.157km |
| 偏心率: | 0.0009671 |
| 轨道倾角: | 81.002° |
| 近地点辐角 | 87.678° |
| 升交点赤经 | 269.262° |
| 平近点角 | 272.554° |
| 近地点: | 619.246km |
| 远地点: | 632.794km |
| 周期: | 97.228分钟 |
| 每日圈数: | 14.810476 |
Detailed Information
使用方式:
暂无
2D Orbit Map
3D Orbit Map
Orbit Altitude Analysis Chart
Orbit Inclination Analysis Chart
Orbit Comprehensive Analysis Chart
View Comprehensive ChartConjunction Data List
| Event ID | Objects | TCA | Miss Dist (km) | Collision Risk Probability | Collision Risk Index (CRI) | Action |
|---|---|---|---|---|---|---|
| CDM_260912-222005-775706-578522 |
BB4
(57757)
KUIPER-00172
(65785) | 2026-09-12T 22:20:25+0000 |
1.121 km
极远距离 | 7.244313E-6 低风险 | 0.52 | |
| CDM_260912-212905-775706-451521 |
BB4
(57757)
KUIPER-00055
(64515) | 2026-09-12T 21:29:35+0000 |
1.647 km
极远距离 | 4.701006E-6 低风险 | 0.48 | |
| CDM_260905-101205-775706-714021 |
BB4
(57757)
KUIPER-00186
(67140) | 2026-09-05T 10:12:33+0000 |
1.561 km
极远距离 | 4.586038E-6 低风险 | 0.48 | |
| CDM_260911-052804-233705-775724 |
NOAA 16 DEB
(42337)
BB4
(57757) | 2026-09-11T 05:28:14+0000 |
2.205 km
极远距离 | 2.291453E-6 低风险 | 0.42 | |
| CDM_260910-074705-775706-892121 |
BB4
(57757)
KUIPER-00386
(68921) | 2026-09-10T 07:47:23+0000 |
2.553 km
极远距离 | 1.538887E-6 低风险 | 0.39 | |
| CDM_260911-070504-233705-775723 |
NOAA 16 DEB
(42337)
BB4
(57757) | 2026-09-11T 07:05:38+0000 |
2.812 km
极远距离 | 1.473435E-6 低风险 | 0.38 | |
| CDM_260913-010303-532005-775721 |
CZ-4 DEB
(35320)
BB4
(57757) | 2026-09-13T 01:03:29+0000 |
2.800 km
极远距离 | 6.554812E-7 极低风险 | 0.31 |
Miss Distance Evolution Trend with All Objects
Collision Probability Evolution Trend with All Objects

